Theta_e
330 330 331 336 345 340 344 347 346 347 347 345 340 343 344 342 345 354 350 340 336 348 351 352 349 348 345 346 341 334 337 341 343 346 346 348 346 344 344 342 341 341 340 340 340 340 340 340 340
328 329 332 337 340 342 341 341 348 348 345 345 343 342 347 352 349 350 348 339 339 348 350 352 349 348 345 345 340 339 343 344 346 346 346 347 343 342 343 342 341 341 340 339 338 338 338 337 337
327 326 334 336 335 339 339 341 346 345 344 346 348 344 349 353 350 350 344 338 343 348 350 353 349 348 345 344 340 339 342 345 346 348 347 346 341 340 340 341 341 341 338 337 335 335 335 334 333
327 330 331 335 333 335 336 339 339 343 345 345 347 349 351 350 350 348 340 341 345 349 351 351 349 348 346 343 344 340 339 345 347 345 340 337 337 338 339 340 340 339 337 335 333 333 332 331 331
326 331 334 334 333 333 334 341 341 341 343 348 347 350 354 351 348 345 341 342 343 348 350 351 349 348 345 343 343 344 333 343 345 341 335 335 335 337 337 338 338 337 335 333 332 331 330 331 332
331 331 335 335 333 333 336 342 342 341 343 346 346 346 353 350 348 348 344 343 342 348 350 352 349 348 346 343 341 344 336 333 337 338 334 334 334 336 337 337 336 335 334 332 331 331 331 330 330
330 333 335 333 332 333 332 342 345 344 344 347 345 345 352 350 350 347 345 342 344 348 352 351 350 348 346 343 343 342 339 330 337 338 334 333 333 334 335 335 334 333 332 332 332 331 329 328 328
330 332 333 331 332 333 330 339 344 343 346 345 346 352 354 350 349 345 341 339 343 346 347 347 347 345 344 342 342 342 341 340 339 340 336 334 332 332 332 333 333 332 332 331 330 329 327 328 330
329 331 332 332 332 332 332 339 343 342 344 348 349 350 348 347 343 338 337 337 339 341 345 345 343 340 340 340 342 337 341 338 338 333 332 335 341 342 341 340 341 336 331 329 328 328 330 333 339
329 331 331 331 330 331 337 341 339 344 347 349 351 346 343 339 338 337 336 336 334 335 337 340 342 341 340 340 341 340 341 340 341 341 342 340 341 343 343 342 338 329 329 327 330 334 337 344 346
326 330 331 330 329 327 332 337 344 348 355 352 353 349 346 345 345 344 341 337 333 333 335 335 340 343 340 338 339 339 339 340 343 344 345 343 342 341 340 338 338 339 337 338 339 343 345 346 347
321 325 329 330 328 330 333 335 339 341 343 340 342 341 340 341 339 339 340 341 343 342 338 336 336 339 340 338 339 338 339 340 341 342 344 344 343 341 341 338 336 336 335 341 344 342 346 347 347
319 322 324 326 327 327 329 333 334 334 333 332 331 331 332 332 330 328 329 330 333 338 341 345 339 340 339 341 337 338 338 337 338 340 342 342 341 340 339 338 337 336 337 340 344 345 345 346 345
319 321 323 324 326 325 326 326 328 328 328 328 326 325 324 322 322 323 322 322 325 326 330 337 344 343 342 341 339 337 337 336 338 337 338 340 341 340 339 337 336 334 334 335 341 343 345 345 344
320 322 324 323 326 327 327 325 326 325 326 326 322 319 317 316 315 315 316 316 317 320 322 325 327 329 337 344 341 339 337 335 335 335 338 340 340 339 340 337 335 334 333 336 341 343 343 344 344
320 320 323 323 324 325 327 327 322 322 323 321 319 317 315 313 311 311 311 311 312 313 314 317 318 319 327 332 343 341 338 337 335 334 334 336 338 339 339 337 335 334 334 333 334 339 342 342 343
320 320 321 325 324 325 327 324 319 319 318 317 315 314 313 312 310 309 308 309 309 310 310 311 312 312 317 324 330 341 343 341 339 336 335 335 336 337 337 336 335 337 337 336 339 339 341 341 343
320 322 326 327 324 325 324 320 317 316 316 314 313 312 312 311 310 308 307 307 307 307 308 308 309 308 309 315 322 337 341 344 345 343 342 340 341 341 340 340 340 340 342 344 345 346 344 344 346
320 321 326 323 322 323 322 320 317 315 314 313 312 311 311 310 308 307 307 306 306 306 306 306 306 306 306 307 310 322 326 328 338 340 343 344 345 345 345 345 344 345 347 347 347 348 349 349 347
321 325 326 324 322 322 320 318 315 314 312 311 311 310 310 309 309 307 306 306 306 306 306 306 306 306 306 306 306 307 311 319 321 326 329 331 332 335 340 345 348 348 348 349 350 350 350 348 347
322 324 326 326 323 322 322 321 317 313 312 311 310 309 309 308 308 308 306 306 305 305 305 306 306 306 306 306 307 309 310 310 310 310 313 315 316 323 328 332 334 340 346 346 347 349 349 350 348
322 322 326 325 327 328 326 331 323 317 314 312 310 309 308 307 307 306 306 305 305 304 305 305 306 305 305 306 306 307 308 308 308 309 310 311 312 314 314 318 324 326 330 337 341 345 348 348 349
325 324 325 325 327 328 327 329 328 320 318 313 309 308 307 307 306 306 305 305 305 304 304 305 305 305 305 305 305 306 306 306 307 307 308 309 309 310 310 310 313 315 317 324 333 336 340 346 347
323 324 325 325 327 330 329 329 326 323 320 313 309 307 306 306 306 305 304 304 304 304 304 304 305 305 304 305 305 305 305 305 306 306 306 307 307 308 309 310 309 310 310 313 319 326 332 338 342
325 328 329 329 329 328 329 328 326 316 312 309 307 306 305 305 305 305 304 304 303 303 303 304 304 304 304 304 304 304 304 304 305 305 305 304 305 306 307 308 308 309 310 310 311 315 320 328 335
326 329 325 327 326 327 327 328 325 313 309 307 306 305 304 305 305 304 303 303 303 303 303 303 303 303 303 304 303 303 303 304 304 304 304 304 304 304 304 305 306 307 308 308 309 311 314 321 327
328 328 328 330 330 330 330 320 316 312 310 308 306 305 304 304 304 304 303 303 303 303 302 302 302 302 303 303 303 303 303 303 303 303 303 302 302 302 303 303 303 304 306 307 307 308 311 314 319
324 325 329 329 330 330 330 330 327 316 313 308 306 305 304 304 304 304 303 303 302 302 302 302 302 302 302 302 302 303 302 302 302 301 301 301 301 301 301 302 303 303 303 305 306 307 308 311 314
323 326 326 328 330 331 329 328 318 317 313 309 305 304 304 304 304 304 303 303 302 302 302 302 301 301 301 301 302 302 302 302 301 301 301 301 300 300 300 300 301 302 302 303 303 305 307 308 311
318 323 324 330 330 329 331 325 312 311 308 306 304 304 304 303 303 303 303 303 302 301 302 302 301 301 301 301 301 301 301 302 302 301 299 299 299 298 298 298 299 300 300 301 301 303 304 306 309
Wind_Speed
2 2 3 7 6 2 10 7 2 3 4 4 2 3 9 5 9 4 5 10 17 20 20 18 16 15 15 15 16 17 18 17 15 14 14 14 14 14 15 15 15 14 14 12 11 10 10 9 9
3 3 5 4 3 4 8 6 6 7 4 3 2 3 1 7 9 9 12 11 20 20 20 17 15 14 15 15 15 17 17 16 14 13 13 13 13 14 13 13 13 12 10 9 8 8 7 7 7
3 5 5 5 3 8 8 7 2 9 5 3 4 2 4 5 8 5 13 20 21 20 19 18 16 14 14 15 15 16 16 15 14 13 12 12 12 11 11 11 10 9 7 6 6 5 5 5 6
6 6 5 5 9 10 8 5 1 0 6 2 2 6 7 10 4 8 17 22 20 20 18 18 16 15 14 15 14 15 16 14 13 13 13 12 11 10 9 9 8 6 5 3 3 3 3 4 5
8 4 6 1 7 8 8 6 2 1 3 5 2 7 6 8 12 17 19 18 17 18 17 17 15 13 13 14 14 13 14 14 13 12 12 11 10 9 9 8 6 5 3 2 1 1 3 4 5
7 3 7 1 7 7 9 6 2 2 4 3 3 7 9 10 13 12 16 14 13 14 13 13 11 10 10 11 12 12 13 14 13 12 12 12 11 9 8 7 6 4 3 2 1 2 4 5 6
12 6 5 3 5 10 10 3 1 3 2 9 3 11 10 14 13 13 14 12 11 11 10 9 8 8 6 6 8 10 11 12 11 10 10 9 9 9 8 7 6 5 4 3 3 4 5 7 8
8 6 5 3 4 11 10 2 3 6 13 7 17 16 14 13 14 15 14 12 10 8 9 8 7 7 6 6 7 7 7 7 8 8 9 8 9 9 8 7 5 6 6 6 6 5 7 8 8
7 7 8 5 3 7 23 19 11 1 19 21 15 16 16 16 16 16 14 11 10 7 6 4 6 6 5 5 5 5 7 9 9 9 9 7 6 8 8 9 11 10 8 8 8 7 8 9 8
11 10 9 4 2 11 23 23 10 19 16 19 19 18 18 17 15 13 10 8 6 7 4 3 3 4 4 4 4 7 8 8 8 8 8 8 8 9 10 9 13 11 10 10 9 8 8 7 8
15 12 6 5 9 15 7 24 26 17 21 19 15 16 16 19 16 14 13 10 7 5 2 4 5 5 4 5 6 7 8 9 9 10 10 9 9 10 10 10 9 8 9 8 7 7 7 6 7
12 14 8 1 15 18 15 23 29 25 20 18 19 19 19 20 21 19 18 17 16 9 4 1 4 5 6 6 5 7 8 8 9 9 11 11 10 11 11 11 11 10 9 8 8 8 7 8 8
14 8 6 12 20 19 21 25 23 22 19 20 22 22 20 21 22 22 20 20 19 18 16 10 3 4 5 7 7 8 9 9 10 11 11 12 12 12 12 12 12 12 11 11 10 9 9 10 11
13 10 10 15 13 12 23 21 10 16 16 19 20 21 20 24 23 23 25 24 22 20 20 18 7 5 7 10 10 11 11 12 11 12 13 12 14 14 13 13 14 14 13 13 12 12 11 12 13
9 16 16 5 11 17 12 21 14 11 13 17 18 18 19 23 25 25 24 23 22 20 19 19 16 16 13 9 13 13 13 13 13 13 13 13 15 15 15 15 15 15 14 15 14 14 14 13 13
13 14 13 12 7 2 10 9 10 9 11 14 15 15 17 21 24 24 24 23 23 21 22 20 20 18 15 13 9 12 13 13 14 14 14 14 16 16 16 16 16 15 15 16 16 16 15 15 15
10 14 18 7 5 3 3 13 9 8 11 13 13 14 15 17 23 24 24 23 23 23 24 24 23 24 19 15 12 8 11 12 14 14 14 14 16 16 17 17 17 16 17 17 16 17 16 17 17
15 9 4 5 11 16 19 17 11 9 11 12 13 14 15 16 19 22 23 23 23 23 23 24 23 26 22 18 16 7 8 8 11 13 14 15 15 15 16 17 16 16 17 18 18 18 17 18 17
6 9 12 14 11 11 16 15 12 10 10 12 13 13 14 14 17 19 21 22 23 24 25 26 25 26 25 23 23 11 12 13 17 13 13 11 12 15 16 18 17 17 18 20 21 21 19 19 19
9 12 16 10 7 9 15 14 11 10 11 11 11 12 13 13 13 18 20 21 22 22 23 25 26 25 25 22 18 14 14 10 13 11 15 16 16 13 12 12 17 17 17 18 20 21 24 25 20
14 18 18 12 12 14 18 11 11 10 10 10 11 11 12 13 14 16 19 20 21 22 22 22 23 23 24 24 21 20 16 17 20 20 17 18 19 15 15 14 12 10 13 19 19 23 21 25 27
15 17 16 22 16 8 23 6 11 11 9 9 10 11 12 12 13 16 18 19 21 21 20 20 21 21 22 23 21 21 19 19 21 20 20 23 19 18 17 18 17 19 15 25 18 21 24 23 27
14 17 21 23 17 6 21 8 14 11 9 6 8 10 11 12 12 14 17 18 20 21 20 19 21 21 21 21 21 20 18 18 19 21 24 21 20 20 21 22 20 21 22 22 21 24 24 26 27
3 15 14 11 11 11 16 14 12 12 10 6 6 8 9 10 11 14 15 16 18 19 20 19 21 20 21 21 21 21 21 23 23 24 24 24 25 22 20 22 24 23 25 23 24 28 25 29 34
13 20 8 9 10 11 9 10 11 13 8 5 5 6 8 9 10 12 15 16 17 19 20 20 22 22 23 23 23 22 23 22 23 24 25 28 26 25 25 26 25 26 26 27 27 28 30 30 32
15 22 12 14 14 13 8 8 8 12 8 6 5 4 6 8 9 11 14 16 17 19 19 21 22 23 23 23 23 22 23 24 24 26 27 26 26 28 28 29 29 30 29 29 29 30 30 30 33
15 16 13 14 7 9 10 6 7 11 9 5 5 4 6 7 9 10 13 15 17 18 20 20 21 22 22 23 24 24 25 26 26 28 28 27 28 30 30 30 31 31 31 31 30 31 32 32 33
9 2 9 10 19 21 11 9 5 18 13 7 4 4 5 5 7 9 11 13 14 15 16 17 19 20 21 22 23 24 27 29 28 30 30 30 31 32 33 33 32 32 31 31 32 33 32 34 35
5 10 8 7 6 12 16 6 7 14 11 8 6 4 4 5 6 8 10 12 13 14 15 16 18 19 19 21 21 22 24 29 30 30 31 32 32 32 33 35 36 36 35 34 33 34 36 38 38
3 5 7 8 13 8 8 4 7 11 10 8 7 4 4 5 7 9 10 12 14 15 15 16 17 17 18 19 20 21 23 27 28 31 31 32 33 32 31 33 36 36 38 36 35 37 35 36 39
Wind_Direction
18 281 265 243 235 122 56 69 11 86 145 45 129 312 20 9 8 30 132 136 148 147 152 152 155 153 148 146 146 146 141 138 138 135 133 129 127 121 118 117 117 110 106 101 94 88 81 73 63
274 288 240 279 306 34 78 30 55 46 64 106 199 245 273 67 47 98 129 146 149 146 151 153 159 156 149 149 150 146 145 140 140 140 136 135 133 129 124 121 116 112 105 99 94 86 75 61 48
264 268 282 311 4 42 56 76 38 69 100 170 134 340 17 32 62 98 120 143 143 144 149 153 161 158 152 154 155 153 150 146 147 146 144 143 139 137 133 130 125 117 107 97 87 74 60 44 28
286 209 215 291 36 70 28 11 333 257 115 198 39 92 98 38 34 103 133 141 143 145 148 159 164 163 156 157 159 157 155 153 155 154 153 152 151 151 147 142 136 128 119 105 84 53 30 17 9
252 248 270 258 63 38 30 36 242 229 69 64 326 88 74 58 88 121 133 141 142 144 149 158 166 167 161 161 165 164 162 160 163 163 160 163 165 165 161 157 155 154 149 142 102 1 351 350 344
258 271 247 236 64 47 52 35 82 203 85 82 103 95 79 102 103 115 129 133 136 136 142 151 161 165 165 166 167 169 171 171 172 174 170 174 177 179 181 181 175 181 183 213 264 303 318 323 324
261 255 269 310 49 64 32 69 45 94 116 69 50 64 91 85 90 99 107 103 115 118 127 134 145 167 176 176 180 178 184 184 182 183 184 189 192 195 202 204 199 212 223 238 262 286 303 311 315
270 267 230 175 56 60 34 134 77 25 60 80 14 39 69 100 110 114 110 105 116 125 128 142 151 162 176 191 195 187 191 199 201 204 212 213 217 218 224 227 256 241 249 262 271 285 297 305 311
246 245 229 137 238 50 39 20 56 52 68 75 68 76 96 109 113 107 108 110 115 123 127 152 164 162 173 165 213 203 211 207 213 217 231 230 243 255 259 255 254 261 264 273 281 293 303 312 314
223 228 221 89 4 8 66 36 17 75 55 66 75 89 102 103 98 97 96 106 109 110 137 176 181 176 179 184 196 202 215 215 223 230 235 239 244 254 249 250 271 267 276 280 293 301 311 321 298
216 238 170 206 23 42 61 59 36 73 58 51 74 91 93 83 75 76 73 66 64 73 137 183 202 196 208 202 205 212 219 222 226 228 230 238 251 258 265 265 270 276 280 280 277 283 277 291 291
234 229 248 78 62 73 80 84 66 63 66 60 60 66 73 70 63 62 54 46 30 32 37 273 226 211 213 218 244 234 234 233 234 235 232 235 244 254 261 267 271 266 259 258 263 266 273 282 282
224 183 202 95 96 89 81 73 77 66 64 67 68 61 57 61 60 54 50 46 41 35 20 359 285 269 250 248 244 238 238 246 249 248 246 239 246 255 261 268 272 273 274 269 268 268 276 276 278
189 83 94 142 102 104 86 66 80 60 73 72 66 61 55 53 51 51 44 38 35 29 22 21 16 330 283 265 256 248 245 240 240 243 249 247 246 251 255 259 266 268 268 272 269 275 283 283 284
170 138 120 60 170 146 126 56 63 65 66 68 64 63 58 50 48 46 43 40 33 30 24 24 17 6 6 290 266 259 253 251 248 246 247 247 249 253 255 261 263 266 268 265 262 268 270 268 270
186 208 191 49 200 47 222 90 61 55 70 66 59 58 56 53 47 41 40 38 32 31 27 24 20 13 3 346 310 266 263 261 260 258 257 252 249 250 253 259 264 265 265 264 263 263 267 268 268
201 202 209 119 24 124 212 119 87 74 76 70 62 53 49 46 43 36 34 33 30 27 25 23 19 15 10 1 346 308 276 271 270 269 268 266 261 255 252 258 261 262 264 262 261 259 259 266 267
194 187 52 103 66 97 104 110 100 84 81 72 63 55 46 42 34 30 28 28 28 27 26 24 20 15 15 11 0 356 356 318 291 282 278 278 275 270 264 264 262 256 261 263 261 260 260 260 264
301 222 134 122 119 84 110 114 104 92 80 70 61 52 48 42 36 31 28 24 24 23 22 21 17 15 15 15 7 6 1 351 357 6 8 326 294 282 276 271 268 261 262 268 271 266 258 256 258
204 157 143 128 141 130 132 113 108 96 81 67 60 53 43 37 36 30 27 23 23 21 20 18 16 15 15 12 5 6 343 332 349 344 334 331 342 351 336 311 281 273 272 272 274 269 270 265 251
197 192 175 149 145 141 138 130 135 117 98 82 62 54 46 36 28 27 26 24 21 21 19 18 16 13 10 8 5 6 358 352 346 341 335 334 326 330 323 317 319 321 297 283 278 273 259 265 263
199 220 173 154 163 184 215 158 175 156 119 78 60 46 37 32 32 29 24 24 23 22 17 17 16 15 12 10 10 7 360 347 339 336 328 323 325 329 322 317 319 308 309 290 281 275 272 259 262
237 190 180 182 210 164 193 259 135 177 164 94 61 49 39 31 28 25 22 23 22 20 17 15 14 15 13 11 11 6 357 344 336 333 329 332 331 330 330 328 320 310 311 300 302 290 286 272 259
261 162 168 200 225 234 186 222 155 176 173 130 73 51 38 29 30 27 21 20 20 18 17 15 13 14 11 9 8 4 356 348 344 342 338 333 328 327 325 323 323 315 312 307 299 282 285 276 268
163 158 168 204 211 240 148 202 80 120 124 103 77 51 34 24 26 22 20 17 14 12 12 12 12 12 9 8 7 3 358 352 345 343 336 330 328 325 321 319 316 310 305 301 296 286 280 276 276
200 202 240 214 220 212 162 217 133 136 135 115 90 60 36 25 21 19 18 11 8 7 7 8 9 7 6 6 4 1 358 353 346 342 336 328 323 319 317 314 309 304 301 297 293 288 283 279 270
198 225 271 287 257 281 138 109 148 165 160 133 89 64 46 29 23 19 16 11 6 5 6 3 1 1 2 2 2 2 358 353 347 341 336 330 324 318 314 311 307 304 299 295 290 286 281 276 270
260 359 228 223 256 250 197 175 118 180 172 150 128 80 56 32 26 22 16 12 5 3 3 2 1 358 357 356 357 357 358 354 347 343 339 333 328 324 319 316 312 308 303 297 289 284 280 275 270
204 221 232 293 305 274 264 109 99 163 152 149 120 94 59 38 27 20 12 10 3 0 1 360 358 355 356 355 351 349 348 352 350 347 342 337 332 327 323 320 316 313 309 303 293 282 279 275 272
293 294 286 263 232 242 288 87 126 130 138 140 130 98 53 23 21 12 9 5 2 358 356 356 354 354 353 351 348 347 345 346 348 347 343 341 337 332 327 324 318 313 310 303 294 288 278 272 272